This demonstration page uses our WeatherBlox Daily Observations layout. Learn more.

39.92423, -83.80882

Hourly Observations for June 11, 2017

Temp ( °F °C ) Dew Point ( °F °C ) Humidity (%) Winds ( mph kmh ) Pressure ( in mb ) Visibility ( mi km ) Precip ( " mm )
12:58 am 00:58 Clear 71 21.8 59 14.9 65 65 S 5 7 30.03 1017 10 16.0934 0 0
1:58 am 01:58 Clear 67 19.4 59 14.8 75 75 SSW 7 11 30.04 1017 10 16.0934 0 0
2:58 am 02:58 Clear 66 18.8 58 14.7 77 77 SW 6 9 30.04 1017 10 16.0934 0 0
3:58 am 03:58 Clear 65 18.6 58 14.7 78 78 SW 8 13 30.05 1018 10 16.0934 0 0
4:58 am 04:58 Clear 66 18.7 59 14.8 78 78 SW 7 11 30.06 1018 10 16.0934 0 0
5:58 am 05:58 Clear 63 17.3 60 15.5 89 89 S 3 6 30.08 1019 10 16.0934 0 0
6:58 am 06:58 Sunny 65 18.1 61 16.1 88 88 Calm 30.1 1019 10 16.0934 0 0
7:58 am 07:58 Sunny 70 21 62 16.5 76 76 Calm 30.12 1020 10 16.0934 0 0
8:58 am 08:58 Sunny 76 24.3 62 16.4 61 61 SW 9 15 30.13 1020 10 16.0934 0 0
9:58 am 09:58 Sunny 78 25.4 61 16.3 57 57 SW 9 15 30.13 1020 10 16.0934 0 0
10:58 am 10:58 Sunny 81 27.1 61 16 51 51 SSW 12 19 30.12 1020 10 16.0934 0 0
11:58 am 11:58 Sunny 84 28.7 57 13.9 40 40 WSW 17 28 30.1 1019 10 16.0934 0 0
12:29 pm 12:29 Sunny 84 29 59 15 43 43 SSW 17 28 30.1 1019 10 16.0934 0 0
12:58 pm 12:58 Sunny 85 29.6 58 14.3 39 39 WSW 17 28 30.1 1019 10 16.0934 0 0
1:56 pm 13:56 Sunny 86 30 59 15 40 40 WSW 17 28 30.09 1019 10 16.0934 0 0
1:58 pm 13:58 Sunny 87 30.4 59 15 39 39 WSW 15 24 30.09 1019 10 16.0934 0 0
2:30 pm 14:30 Mostly Sunny 88 31 59 15 38 38 WSW 13 20 30.09 1019 10 16.0934 0 0
2:58 pm 14:58 Partly Cloudy 88 30.9 60 15.8 40 40 SSW 14 22 30.08 1019 10 16.0934 0 0
3:58 pm 15:58 Mostly Cloudy 86 30.2 59 15 40 40 SSW 15 24 30.08 1019 10 16.0934 0 0
4:58 pm 16:58 Partly Cloudy with Light Drizzle 87 30.6 60 15.8 41 41 SSW 13 20 30.07 1018 10 16.0934 0 0
5:58 pm 17:58 Partly Cloudy 86 30 60 15.3 41 41 SSW 10 17 30.07 1018 10 16.0934 0 0.0254
6:58 pm 18:58 Mostly Sunny 84 28.8 60 15.8 45 45 SW 12 19 30.05 1018 10 16.0934 0 0.0254
7:58 pm 19:58 Sunny 84 29 58 14.7 42 42 SW 9 15 30.04 1017 10 16.0934 0 0
8:58 pm 20:58 Sunny 80 26.6 60 15.4 50 50 S 6 9 30.03 1017 10 16.0934 0 0
9:58 pm 21:58 Clear 78 25.5 60 15.4 54 54 S 5 7 30.04 1017 10 16.0934 0 0
10:48 pm 22:48 Clear 75 24 61 16 61 61 S 3 6 30.05 1018 10 16.0934 0 0
10:58 pm 22:58 Clear 73 22.9 61 15.9 65 65 S 5 7 30.05 1018 10 16.0934 0 0
11:18 pm 23:18 Clear 75 24 61 16 61 61 Calm 30.05 1018 10 16.0934 0 0
11:28 pm 23:28 Clear 73 23 61 16 65 65 Calm 30.05 1018 10 16.0934 0 0
11:58 pm 23:58 Mostly Clear 75 23.8 60 15.7 61 61 Calm 30.05 1018 10 16.0934 0 0

Powered by AerisWeather